Location: Newark
(47.5783°N, 6.7622°E)
Time: 01:10:25
(UTC+00:00)

A-11 Canister half - Visible Passes

Search period start: 29 February 2020 00:00
Search period end: 10 March 2020 00:00
Orbit: 1524 x 1684 km, 47.3° (Epoch: 28 February)

Date Brightness Start Highest point End Pass type
(mag) Time Alt. Az. Time Alt. Az. Time Alt. Az.
01 Mar 11.2 05:25:51 10° S 05:32:19 20° SE 05:38:40 10° E visible
02 Mar 11.2 05:04:33 10° S 05:10:46 19° SE 05:16:53 10° E visible
03 Mar 11.2 04:43:17 10° SSE 04:49:13 18° SE 04:55:03 10° E visible
04 Mar 11.2 04:22:04 10° SSE 04:27:41 17° SE 04:33:12 10° E visible
05 Mar 11.1 04:00:52 10° SSE 04:06:08 16° SE 04:11:18 10° E visible
06 Mar 11.1 03:39:44 10° SSE 03:44:36 15° SE 03:49:23 10° E visible
07 Mar 11.1 03:18:39 10° SSE 03:23:04 14° SE 03:27:24 10° E visible
07 Mar 10.0 05:17:06 10° SSW 05:26:11 45° SE 05:35:01 10° ENE visible
08 Mar 11.1 02:57:40 10° SSE 03:01:31 13° ESE 03:05:19 10° E visible
08 Mar 10.0 04:55:34 10° SSW 05:04:36 43° SE 05:13:21 10° ENE visible
09 Mar 11.1 02:36:48 10° SE 02:39:59 12° ESE 02:43:08 10° ESE visible
09 Mar 10.0 04:34:01 10° SSW 04:43:00 42° SE 04:51:43 10° ENE visible
